Total_Precipitation_Accumulation
0.31 0.30 0.27 0.21 0.13 0.07 0.04 0.14 0.20 0.11 0.11 0.28 0.04 0.01 0.00 0.00 0.03 0.05 0.16 0.41 0.41 0.78 0.45 0.04 0.05 0.09 0.03 0.03 0.00 0.00 0.00 0.01 0.04
0.56 0.47 0.34 0.23 0.16 0.14 0.09 0.07 0.16 0.12 0.11 0.22 0.10 0.03 0.00 0.01 0.03 0.02 0.08 0.26 0.45 0.56 0.41 0.03 0.00 0.00 0.00 0.00 0.02 0.02 0.02 0.04 0.05
0.37 0.39 0.34 0.27 0.28 0.32 0.28 0.20 0.21 0.15 0.11 0.22 0.41 0.10 0.01 0.02 0.03 0.01 0.01 0.11 0.41 0.54 0.43 0.13 0.04 0.04 0.03 0.03 0.03 0.03 0.08 0.05 0.03
0.26 0.31 0.30 0.33 0.46 0.42 0.43 0.30 0.28 0.26 0.22 0.24 0.21 0.08 0.03 0.05 0.01 0.00 0.00 0.04 0.27 0.32 0.26 0.18 0.08 0.07 0.08 0.12 0.07 0.09 0.07 0.05 0.03
0.12 0.15 0.14 0.20 0.31 0.44 0.47 0.37 0.35 0.34 0.28 0.21 0.11 0.02 0.00 0.01 0.00 0.00 0.02 0.12 0.11 0.09 0.12 0.04 0.04 0.10 0.05 0.03 0.02 0.03 0.02 0.03 0.05
0.12 0.09 0.10 0.18 0.27 0.31 0.44 0.48 0.46 0.32 0.29 0.26 0.20 0.05 0.00 0.00 0.00 0.00 0.05 0.19 0.15 0.15 0.16 0.08 0.10 0.05 0.01 0.01 0.03 0.03 0.04 0.08 0.10
0.36 0.44 0.40 0.35 0.32 0.29 0.36 0.43 0.46 0.35 0.27 0.26 0.27 0.17 0.09 0.02 0.00 0.01 0.07 0.15 0.16 0.10 0.19 0.16 0.11 0.08 0.02 0.01 0.03 0.02 0.07 0.03 0.03
0.42 0.46 0.39 0.47 0.51 0.41 0.51 0.45 0.28 0.29 0.27 0.32 0.31 0.31 0.28 0.15 0.06 0.02 0.06 0.11 0.26 0.32 0.17 0.18 0.16 0.13 0.09 0.02 0.02 0.02 0.01 0.00 0.01
0.26 0.42 0.42 0.45 0.47 0.50 0.59 0.73 0.76 0.57 0.43 0.32 0.27 0.25 0.16 0.12 0.12 0.07 0.03 0.15 0.37 0.50 0.38 0.30 0.29 0.19 0.14 0.03 0.01 0.00 0.00 0.01 0.01
0.43 0.54 0.49 0.58 0.54 0.44 0.51 0.69 0.82 0.92 1.01 1.22 0.86 0.38 0.27 0.23 0.19 0.12 0.08 0.13 0.38 0.51 0.56 0.45 0.31 0.26 0.14 0.02 0.01 0.01 0.01 0.01 0.01
0.40 1.28 1.98 1.79 1.80 1.83 1.60 1.14 1.11 1.26 1.16 1.26 1.76 1.61 0.95 0.79 0.55 0.32 0.18 0.20 0.28 0.39 0.54 0.48 0.42 0.28 0.12 0.03 0.01 0.01 0.02 0.01 0.01
0.03 0.21 0.48 0.75 0.84 0.91 0.93 0.95 0.86 0.83 0.84 0.88 1.20 1.49 1.32 0.85 0.61 0.47 0.32 0.29 0.27 0.31 0.54 0.47 0.48 0.43 0.27 0.11 0.02 0.01 0.01 0.01 0.01
0.00 0.01 0.03 0.05 0.09 0.11 0.14 0.20 0.22 0.19 0.16 0.13 0.21 0.34 0.50 0.72 0.51 0.35 0.30 0.27 0.27 0.28 0.46 0.57 0.52 0.45 0.39 0.35 0.18 0.04 0.01 0.01 0.00
0.00 0.01 0.02 0.03 0.03 0.03 0.05 0.09 0.12 0.10 0.08 0.05 0.04 0.09 0.15 0.25 0.32 0.23 0.22 0.24 0.23 0.27 0.30 0.35 0.47 0.42 0.43 0.42 0.43 0.27 0.10 0.01 0.01
0.00 0.01 0.02 0.05 0.11 0.14 0.10 0.10 0.17 0.19 0.19 0.14 0.13 0.10 0.11 0.17 0.21 0.25 0.19 0.19 0.31 0.31 0.28 0.22 0.21 0.23 0.33 0.43 0.63 0.60 0.31 0.09 0.00
0.00 0.00 0.01 0.04 0.05 0.09 0.19 0.21 0.19 0.21 0.28 0.41 0.36 0.27 0.16 0.08 0.08 0.10 0.12 0.12 0.17 0.26 0.42 0.31 0.22 0.17 0.26 0.37 0.42 0.72 0.85 0.31 0.07
0.00 0.01 0.02 0.02 0.03 0.03 0.05 0.16 0.28 0.24 0.27 0.46 0.45 0.54 0.49 0.33 0.19 0.12 0.13 0.14 0.15 0.21 0.25 0.40 0.29 0.14 0.14 0.16 0.33 0.49 0.77 0.77 0.21
0.00 0.00 0.01 0.02 0.04 0.03 0.03 0.06 0.07 0.16 0.23 0.33 0.55 0.56 0.44 0.44 0.39 0.39 0.37 0.32 0.43 0.42 0.43 0.41 0.41 0.37 0.22 0.12 0.14 0.28 0.47 0.51 0.40
0.00 0.00 0.02 0.03 0.03 0.03 0.02 0.04 0.08 0.10 0.11 0.17 0.26 0.31 0.32 0.31 0.43 0.45 0.45 0.47 0.49 0.57 0.66 0.72 0.73 0.69 0.60 0.47 0.22 0.11 0.15 0.26 0.31
0.00 0.00 0.01 0.02 0.04 0.04 0.03 0.03 0.04 0.08 0.11 0.11 0.14 0.18 0.27 0.29 0.22 0.23 0.41 0.56 0.54 0.48 0.56 0.68 0.74 0.83 0.90 0.90 0.79 0.59 0.31 0.27 0.21